| time (UTC) | temp F | wind direction | speed MPH | gust MPH | rain 1hr in | rain 24hr in | rain mn in | humidity % | barometer mb |
| 20260509054436 | 62 | 156 | 2.0 | 0.0 | 0.00 | 0.00 | 0.00 | 85 | 1007.6 |
| 20260509052936 | 62 | 330 | 0.0 | 0.0 | 0.00 | 0.00 | 0.00 | 84 | 1007.6 |
| 20260509051527 | 62 | 331 | 1.0 | 0.0 | 0.00 | 0.00 | 0.00 | 83 | 1007.6 |
| 20260509045936 | 62 | 201 | 0.0 | 0.0 | 0.00 | 0.00 | 0.00 | 82 | 1008.4 |
| 20260509044436 | 62 | 80 | 1.0 | 0.0 | 0.00 | 0.00 | 0.00 | 81 | 1008.4 |
| 20260509042936 | 63 | 80 | 0.0 | 0.0 | 0.00 | 0.00 | 0.00 | 80 | 1008.4 |
| 20260509041453 | 63 | 146 | 3.0 | 0.0 | 0.00 | 0.00 | 0.00 | 80 | 1008.4 |
| 20260509035936 | 63 | 220 | 2.0 | 0.0 | 0.00 | 0.00 | 0.00 | 79 | 1008.7 |
| 20260509034436 | 63 | 201 | 1.0 | 0.0 | 0.00 | 0.00 | 0.00 | 79 | 1008.7 |
| 20260509032936 | 63 | 153 | 3.0 | 0.0 | 0.00 | 0.00 | 0.00 | 78 | 1008.7 |
| 20260509031510 | 63 | 146 | 4.0 | 0.0 | 0.00 | 0.00 | 0.00 | 78 | 1008.7 |
| 20260509025936 | 63 | 209 | 3.0 | 0.0 | 0.00 | 0.00 | 0.00 | 77 | 1008.9 |
| 20260509024436 | 63 | 230 | 1.0 | 0.0 | 0.00 | 0.00 | 0.00 | 76 | 1008.9 |
| 20260509022936 | 64 | 189 | 2.0 | 0.0 | 0.00 | 0.00 | 0.00 | 75 | 1008.9 |
| 20260509021436 | 64 | 164 | 6.0 | 0.0 | 0.00 | 0.00 | 0.00 | 74 | 1008.9 |
| 20260509015936 | 64 | 232 | 3.0 | 0.0 | 0.00 | 0.00 | 0.00 | 74 | 1008.1 |
| 20260509014453 | 64 | 212 | 4.0 | 0.0 | 0.00 | 0.00 | 0.00 | 73 | 1008.1 |
| 20260509012940 | 64 | 207 | 6.0 | 0.0 | 0.00 | 0.00 | 0.00 | 73 | 1008.1 |
| 20260509011436 | 64 | 170 | 6.0 | 0.0 | 0.00 | 0.00 | 0.00 | 73 | 1008.1 |
| 20260509005936 | 65 | 180 | 5.0 | 0.0 | 0.00 | 0.00 | 0.00 | 72 | 1007.5 |
| 20260509004436 | 65 | 169 | 4.0 | 0.0 | 0.00 | 0.00 | 0.00 | 73 | 1007.5 |
| 20260509002936 | 66 | 195 | 4.0 | 0.0 | 0.00 | 0.00 | 0.00 | 73 | 1007.5 |
| 20260509001436 | 66 | 185 | 6.0 | 0.0 | 0.00 | 0.00 | 0.00 | 74 | 1007.5 |
| 20260508235936 | 67 | 192 | 0.0 | 0.0 | 0.00 | 0.00 | 0.00 | 74 | 1007.1 |
| 20260508234436 | 68 | 107 | 0.0 | 0.0 | 0.00 | 0.00 | 0.00 | 71 | 1007.1 |
| 20260508233010 | 68 | 72 | 1.0 | 0.0 | 0.00 | 0.00 | 0.00 | 68 | 1007.1 |
| 20260508231436 | 69 | 79 | 0.0 | 0.0 | 0.00 | 0.00 | 0.00 | 65 | 1007.1 |
| 20260508225936 | 70 | 73 | 1.0 | 0.0 | 0.00 | 0.00 | 0.00 | 61 | 1007.4 |
| 20260508224436 | 70 | 73 | 1.0 | 0.0 | 0.00 | 0.00 | 0.00 | 60 | 1007.4 |
| 20260508222936 | 70 | 96 | 2.0 | 0.0 | 0.00 | 0.00 | 0.00 | 56 | 1007.4 |
| 20260508221436 | 70 | 42 | 3.0 | 0.0 | 0.00 | 0.00 | 0.00 | 56 | 1007.4 |
| 20260508215936 | 71 | 57 | 3.0 | 0.0 | 0.00 | 0.00 | 0.00 | 55 | 1007.4 |
| 20260508214453 | 71 | 85 | 2.0 | 0.0 | 0.00 | 0.00 | 0.00 | 54 | 1007.4 |
| 20260508212936 | 71 | 90 | 5.0 | 0.0 | 0.00 | 0.00 | 0.00 | 51 | 1007.4 |
| 20260508211436 | 72 | 132 | 6.0 | 0.0 | 0.00 | 0.00 | 0.00 | 51 | 1007.4 |
| 20260508205953 | 72 | 129 | 5.0 | 0.0 | 0.00 | 0.00 | 0.00 | 50 | 1007.6 |
| 20260508204530 | 72 | 72 | 6.0 | 0.0 | 0.00 | 0.00 | 0.00 | 51 | 1007.6 |
| 20260508202936 | 72 | 225 | 3.0 | 0.0 | 0.00 | 0.00 | 0.00 | 49 | 1007.6 |
| 20260508201436 | 72 | 98 | 6.0 | 0.0 | 0.00 | 0.00 | 0.00 | 50 | 1007.6 |
| 20260508195953 | 71 | 144 | 3.0 | 0.0 | 0.00 | 0.00 | 0.00 | 51 | 1008.6 |
| 20260508194436 | 71 | 83 | 5.0 | 0.0 | 0.00 | 0.00 | 0.00 | 49 | 1008.6 |
| 20260508192936 | 71 | 248 | 3.0 | 0.0 | 0.00 | 0.00 | 0.00 | 50 | 1008.6 |
| 20260508191436 | 71 | 120 | 6.0 | 0.0 | 0.00 | 0.00 | 0.00 | 50 | 1008.6 |
| 20260508185936 | 71 | 48 | 4.0 | 0.0 | 0.00 | 0.00 | 0.00 | 50 | 1009.0 |
| 20260508184436 | 70 | 198 | 0.0 | 0.0 | 0.00 | 0.00 | 0.00 | 51 | 1009.0 |
| 20260508182953 | 70 | 120 | 5.0 | 0.0 | 0.00 | 0.00 | 0.00 | 51 | 1009.0 |
| 20260508181436 | 70 | 115 | 0.0 | 0.0 | 0.00 | 0.00 | 0.00 | 52 | 1009.0 |
| 20260508175936 | 69 | 38 | 6.0 | 0.0 | 0.00 | 0.00 | 0.00 | 51 | 1009.9 |
| 20260508174452 | 69 | 77 | 4.0 | 0.0 | 0.00 | 0.00 | 0.00 | 53 | 1009.9 |
| 20260508172953 | 70 | 194 | 4.0 | 0.0 | 0.00 | 0.00 | 0.00 | 53 | 1009.9 |
| 20260508171436 | 69 | 111 | 8.0 | 0.0 | 0.00 | 0.00 | 0.00 | 54 | 1009.9 |
| 20260508165953 | 69 | 90 | 8.0 | 0.0 | 0.00 | 0.00 | 0.00 | 54 | 1010.5 |
| 20260508164436 | 69 | 147 | 8.0 | 0.0 | 0.00 | 0.00 | 0.00 | 54 | 1010.5 |
| 20260508162936 | 68 | 62 | 4.0 | 0.0 | 0.00 | 0.00 | 0.00 | 56 | 1010.5 |
| 20260508161436 | 68 | 90 | 6.0 | 0.0 | 0.00 | 0.00 | 0.00 | 58 | 1010.5 |
| 20260508155936 | 67 | 114 | 7.0 | 0.0 | 0.00 | 0.00 | 0.00 | 57 | 1010.9 |
| 20260508154436 | 66 | 55 | 11.0 | 0.0 | 0.00 | 0.00 | 0.00 | 57 | 1010.9 |
| 20260508152936 | 66 | 105 | 13.0 | 0.0 | 0.00 | 0.00 | 0.00 | 57 | 1010.9 |
| 20260508151436 | 67 | 102 | 13.0 | 0.0 | 0.00 | 0.00 | 0.00 | 61 | 1010.9 |
| 20260508145936 | 66 | 64 | 11.0 | 0.0 | 0.00 | 0.00 | 0.00 | 62 | 1011.1 |
| 20260508144436 | 65 | 69 | 9.0 | 0.0 | 0.00 | 0.00 | 0.00 | 63 | 1011.1 |
| 20260508142953 | 64 | 62 | 13.0 | 0.0 | 0.00 | 0.00 | 0.00 | 66 | 1011.1 |
| 20260508141436 | 64 | 67 | 7.0 | 0.0 | 0.00 | 0.00 | 0.00 | 69 | 1011.1 |
| 20260508135953 | 63 | 97 | 15.0 | 0.0 | 0.00 | 0.00 | 0.00 | 72 | 1010.3 |
| 20260508134436 | 62 | 119 | 6.0 | 0.0 | 0.00 | 0.00 | 0.00 | 74 | 1010.3 |
| 20260508132936 | 62 | 87 | 6.0 | 0.0 | 0.00 | 0.00 | 0.00 | 78 | 1010.3 |
| 20260508131436 | 61 | 76 | 17.0 | 0.0 | 0.00 | 0.00 | 0.00 | 81 | 1010.3 |
| 20260508125936 | 60 | 69 | 9.0 | 0.0 | 0.00 | 0.00 | 0.00 | 83 | 1009.8 |
| 20260508124436 | 59 | 88 | 3.0 | 0.0 | 0.00 | 0.00 | 0.00 | 85 | 1009.8 |
| 20260508122936 | 59 | 59 | 7.0 | 0.0 | 0.00 | 0.00 | 0.00 | 86 | 1009.8 |
| 20260508121436 | 58 | 45 | 8.0 | 0.0 | 0.00 | 0.00 | 0.00 | 88 | 1009.8 |
| 20260508115936 | 58 | 48 | 3.0 | 0.0 | 0.00 | 0.00 | 0.00 | 89 | 1008.7 |
| 20260508114436 | 58 | 52 | 4.0 | 0.0 | 0.00 | 0.00 | 0.00 | 90 | 1008.7 |
| 20260508112936 | 57 | 70 | 2.0 | 0.0 | 0.00 | 0.00 | 0.00 | 91 | 1008.7 |
| 20260508111436 | 56 | 21 | 2.0 | 0.0 | 0.00 | 0.00 | 0.00 | 90 | 1008.7 |
| 20260508105936 | 56 | 32 | 0.0 | 0.0 | 0.00 | 0.00 | 0.00 | 90 | 1007.9 |
| 20260508104436 | 56 | 45 | 2.0 | 0.0 | 0.00 | 0.00 | 0.00 | 89 | 1007.9 |
| 20260508102936 | 56 | 22 | 3.0 | 0.0 | 0.00 | 0.00 | 0.00 | 89 | 1007.9 |
| 20260508101435 | 56 | 18 | 2.0 | 0.0 | 0.00 | 0.00 | 0.00 | 89 | 1007.9 |
| 20260508095936 | 57 | 21 | 3.0 | 0.0 | 0.00 | 0.00 | 0.00 | 88 | 1007.2 |
| 20260508094436 | 57 | 23 | 2.0 | 0.0 | 0.00 | 0.00 | 0.00 | 88 | 1007.2 |
| 20260508092936 | 57 | 15 | 6.0 | 0.0 | 0.00 | 0.00 | 0.00 | 88 | 1007.2 |
| 20260508091436 | 57 | 44 | 5.0 | 0.0 | 0.00 | 0.00 | 0.00 | 88 | 1007.2 |
| 20260508085953 | 58 | 15 | 4.0 | 0.0 | 0.00 | 0.00 | 0.00 | 87 | 1007.0 |
| 20260508084436 | 58 | 36 | 2.0 | 0.0 | 0.00 | 0.00 | 0.00 | 86 | 1007.0 |
| 20260508082953 | 59 | 30 | 3.0 | 0.0 | 0.00 | 0.00 | 0.00 | 85 | 1007.0 |
| 20260508081436 | 60 | 65 | 0.0 | 0.0 | 0.00 | 0.00 | 0.00 | 85 | 1007.0 |
| 20260508075936 | 60 | 60 | 3.0 | 0.0 | 0.00 | 0.00 | 0.00 | 86 | 1006.7 |
| 20260508074453 | 60 | 37 | 2.0 | 0.0 | 0.00 | 0.00 | 0.00 | 86 | 1006.7 |
| 20260508072936 | 60 | 85 | 2.0 | 0.0 | 0.00 | 0.00 | 0.00 | 85 | 1006.7 |
| 20260508071436 | 61 | 49 | 0.0 | 0.0 | 0.00 | 0.00 | 0.00 | 84 | 1006.7 |
| 20260508065953 | 62 | 51 | 4.0 | 0.0 | 0.00 | 0.00 | 0.00 | 83 | 1006.7 |
| 20260508064510 | 62 | 31 | 9.0 | 0.0 | 0.00 | 0.00 | 0.00 | 83 | 1006.7 |
| 20260508062936 | 62 | 18 | 3.0 | 0.0 | 0.00 | 0.00 | 0.00 | 83 | 1006.7 |
| 20260508061436 | 62 | 1 | 3.0 | 0.0 | 0.00 | 0.00 | 0.00 | 85 | 1006.7 |
| 20260508055953 | 63 | 259 | 0.0 | 0.0 | 0.00 | 0.00 | 0.73 | 86 | 1006.4 |